Miscellaneous Local Product
Issued by NWS Hastings, NE

Home | Current Version | Previous Version | Graphics & Text | Print | Product List | Glossary On
Versions: 1 2 3 4 5 6 7 8 9 10 11 12 13 14 15 16 17 18 19 20 21 22 23 24 25 26 27 28 29 30 31 32 33 34 35 36 37 38 39 40 41 42 43 44 45 46 47 48 49 50
273
AXUS43 KGID 161902
MISGRI

GID CWA HOURLY WEATHER ROUNDUP
NATIONAL WEATHER SERVICE HASTINGS NE
100 PM CST FRI FEB 16 2018

NOTE: "FAIR" INDICATES FEW OR NO CLOUDS BELOW 12,000 FEET WITH NO
SIGNIFICANT WEATHER AND/OR OBSTRUCTIONS TO VISIBILITY.

...SOUTH CENTRAL NEBRASKA...

CITY           SKY/WX    TMP DP  RH WIND       PRES   REMARKS
GRAND ISLAND   SUNNY     28  13  53 S12G21    30.35F WCI  18
KEARNEY        SUNNY     30  18  60 SW15      30.33F WCI  19
HASTINGS       SUNNY     28  11  48 S12G18    30.35F WCI  18
ORD            SUNNY     28  15  58 S16G23    30.28F WCI  16
YORK           SUNNY     28  10  47 SW12      30.37F WCI  18
AURORA         SUNNY     28  10  47 SW13      30.35F WCI  18
LEXINGTON      SUNNY     29  18  62 SW13G18   30.31F WCI  19
HOLDREGE       SUNNY     29  18  63 SW13G21   30.32F WCI  19
HEBRON         SUNNY     29   7  39 SW6       30.40F WCI  23

...NEBRASKA PANHANDLE...

CITY           SKY/WX    TMP DP  RH WIND       PRES   REMARKS
CHADRON        MOSUNNY   34  21  59 SW15      30.04F WCI  24
ALLIANCE       MOSUNNY   38  18  44 SW24      30.06F WCI  27
SCOTTSBLUFF    MOSUNNY   39  20  46 SW18G25   30.07F WCI  30
SIDNEY         SUNNY     36  13  38 S24       30.11F WCI  24

...WESTERN AND NORTH CENTRAL NEBRASKA...

CITY           SKY/WX    TMP DP  RH WIND       PRES   REMARKS
VALENTINE      MOSUNNY   35  21  56 SW17G25   30.11F WCI  25
AINSWORTH      MOSUNNY   33  21  62 SW17      30.15F WCI  22
ONEILL         SUNNY     30  15  54 S15       30.23F WCI  19
BROKEN BOW     SUNNY     28  16  60 SW17      30.25F WCI  16
IMPERIAL       SUNNY     36  18  48 S16       30.21F WCI  26
NORTH PLATTE   SUNNY     33  19  56 S9        30.23F WCI  25
MCCOOK         SUNNY     33  20  58 SW12      30.28F WCI  24

...EASTERN NEBRASKA...

CITY           SKY/WX    TMP DP  RH WIND       PRES   REMARKS
NORFOLK        SUNNY     22   9  57 S18       30.31F WCI   7
SO SIOUX CITY  SUNNY     17   6  62 S10       30.38F WCI   5
TEKAMAH        SUNNY     21  10  62 S7        30.41F WCI  12
COLUMBUS       SUNNY     23  11  60 S12       30.38F WCI  12
ALBION         SUNNY     26   8  48 S15       30.32F WCI  13
OMAHA EPPLEY   NOT AVBL
OFFUTT AFB     SUNNY     25   4  41 W6        30.42F WCI  18
MILLARD        SUNNY     26   6  42 SW5       30.43F WCI  21
LINCOLN        SUNNY     27   7  42 SW9       30.43F WCI  18
NEBRASKA CITY  SUNNY     26   6  43 W3        30.42F
BEATRICE       SUNNY     28   7  39 SW5       30.42F WCI  23
FALLS CITY     SUNNY     27   4  37 NW6       30.44F WCI  20

...NORTHERN KANSAS...

CITY           SKY/WX    TMP DP  RH WIND       PRES   REMARKS
GOODLAND       SUNNY     36  16  44 S16       30.21F WCI  26
HILL CITY      SUNNY     33  15  47 SW9       30.35F WCI  25
NORTON         CLEAR     34  12  40 SW9       30.32F WCI  26
PHILLIPSBURG   SUNNY     32  14  47 SW7       30.37F WCI  26
SMITH CENTER   SUNNY     30  12  47 SW7       30.39F WCI  23
BELOIT         SUNNY     28   5  37 CALM      30.43F
HAYS           SUNNY     32  14  47 VRB7      30.38F WCI  26
RUSSELL        SUNNY     33  12  41 VRB5      30.38F WCI  29
CONCORDIA      SUNNY     29   2  31 CALM      30.40F
SALINA         SUNNY     32   7  35 CALM      30.43F
TOPEKA         MOSUNNY   33   5  30 CALM      30.43F



USA.gov is the U.S. government's official web portal to all federal, state and local government web resources and services.